User: anonymous   Login
Location: Unspecified
(0.0000°N, 0.0000°E)
Time: 13:58:35
(UTC+00:00)
Language:

TYVAK-61C - Orbit

View from above orbital plane
View from above orbital plane
View from above satellite
View from above satellite

Ground track
Ground track

The orbit data is extracted from the following two-line orbital elements,

1 43144U 18004AK  19047.76741378  .00001394  00000-0  60072-4 0  9999
2 43144  97.5044 116.2874 0007676 347.6107  12.4941 15.24258274 60973
Epoch (UTC): 16 February 2019 18:25:04
Eccentricity: 0.0007676
inclination: 97.5044°
perigee height: 488 km
apogee height: 498 km
right ascension of ascending node: 116.2874°
argument of perigee: 347.6107°
revolutions per day: 15.24258274
mean anomaly at epoch: 12.4941°
orbit number at epoch: 6097

The dashed part of the orbit path shows where the satellite is in the earth's shadow,  

DLR